CAPE
0 0 0 0 0 0 0 0 0 0 0 0 0 0 0 0 0 0 0 0 0 0 0 0 0 0 0 0 0 0 0 0 0 0 0 0 0 0 0 0 0 0 0 0 0
1 0 0 0 0 0 0 0 0 0 0 0 0 0 0 0 0 0 0 0 0 0 0 0 0 0 0 0 0 0 0 0 0 0 0 0 0 0 0 0 0 0 0 0 0
1 0 0 0 0 0 0 0 0 0 0 0 0 0 0 0 0 0 0 0 0 0 0 0 0 0 0 0 0 0 0 0 0 0 0 0 0 0 0 0 0 0 0 0 0
0 0 0 0 0 0 0 0 0 0 0 0 0 0 0 0 0 0 0 0 0 0 0 0 0 0 0 0 0 0 0 0 0 0 0 0 0 0 0 0 0 0 0 0 0
0 0 0 0 0 0 0 0 0 0 0 0 0 0 0 0 0 0 0 0 0 0 0 0 0 0 0 0 0 0 0 0 0 0 0 0 0 0 0 0 0 0 0 0 0
0 0 0 0 0 0 0 0 0 0 0 0 0 0 0 0 0 0 0 0 0 0 0 0 0 0 0 0 0 0 0 0 0 0 0 0 0 0 0 0 0 0 0 0 0
0 0 0 0 0 0 0 0 0 0 0 0 0 0 0 0 0 0 0 0 0 0 0 0 0 0 0 0 0 0 0 0 0 0 0 0 0 0 0 0 0 0 0 0 0
0 0 0 0 0 0 0 0 0 0 0 0 0 0 0 0 0 0 0 0 0 0 0 0 0 0 0 0 0 0 0 0 0 0 0 0 0 0 0 0 0 0 0 0 0
0 0 0 0 0 0 0 0 0 0 0 0 0 0 0 0 0 0 0 0 0 0 0 0 0 0 0 0 0 0 0 0 0 0 0 0 0 0 0 0 0 0 0 0 0
2 0 0 0 0 0 0 0 0 0 0 0 0 0 0 0 0 0 0 0 0 0 0 0 0 0 0 0 0 0 0 0 0 0 0 0 0 0 0 0 0 0 0 0 0
3 0 0 0 0 0 0 0 0 0 0 0 0 0 0 0 0 0 0 0 0 0 0 0 0 0 0 0 0 0 0 0 0 0 0 0 0 0 0 0 0 0 0 0 0
4 1 0 0 0 0 0 0 0 0 0 0 0 0 0 0 0 0 0 0 0 0 0 0 0 0 0 0 0 0 0 0 0 0 0 0 0 0 0 0 0 0 0 0 0
4 3 0 0 0 0 0 0 0 0 0 0 0 0 0 0 0 0 0 0 0 0 0 0 0 0 0 0 0 0 0 0 0 0 0 0 0 0 0 0 0 0 0 0 0
3 3 0 0 0 0 0 0 0 0 0 0 0 0 0 0 0 0 0 0 0 0 0 0 0 0 0 0 0 0 0 0 0 0 0 0 0 0 0 0 0 0 0 0 0
3 1 0 0 0 0 0 0 0 0 0 0 0 0 0 0 0 0 0 0 0 0 0 0 0 0 0 0 0 0 0 0 0 0 0 0 0 0 0 0 0 0 0 0 0
1 3 0 0 0 0 0 0 0 0 0 0 0 0 0 0 0 0 0 0 0 0 0 0 0 0 0 0 0 0 0 0 0 0 0 0 0 0 0 0 0 0 0 0 0
0 5 0 0 0 0 0 0 0 0 0 0 0 0 0 0 0 0 0 0 0 0 0 0 0 0 0 0 0 0 0 0 0 0 0 0 0 0 0 0 0 0 0 0 0
0 6 2 0 0 0 0 0 0 0 0 0 0 0 0 0 0 0 0 0 0 0 0 0 0 0 0 0 0 0 0 0 0 0 0 0 0 0 0 0 0 0 0 0 0
0 8 0 0 0 0 0 0 0 0 0 0 0 0 0 0 0 0 0 0 0 0 0 0 0 0 0 0 0 0 0 0 0 0 0 0 0 0 0 0 0 0 0 0 0
0 0 0 0 0 0 0 0 0 0 0 0 0 0 0 0 0 0 0 0 0 0 0 0 0 0 0 0 0 0 0 0 0 0 0 0 0 0 0 0 0 0 0 0 0
0 1 0 0 0 0 0 0 0 0 0 0 0 0 0 0 0 0 0 0 0 0 0 0 0 0 0 0 0 0 0 0 0 0 0 0 0 0 0 0 0 0 0 0 0
0 1 0 0 0 0 0 0 0 0 0 0 0 0 0 0 0 0 0 0 0 0 0 0 0 0 0 0 0 0 0 0 0 0 0 0 0 0 0 0 0 0 0 0 0
0 0 0 0 0 0 0 0 0 0 0 0 0 0 0 0 0 0 0 0 0 0 0 0 0 0 0 0 0 0 0 0 0 0 0 0 0 0 0 0 0 0 0 0 0
0 0 0 0 0 0 0 0 0 0 0 0 0 0 0 0 0 0 0 0 0 0 0 0 0 0 0 0 0 0 0 0 0 0 0 0 0 0 0 0 0 0 0 0 0
0 1 0 0 0 0 0 0 0 0 0 0 0 0 0 0 0 0 0 0 0 0 0 0 0 0 0 0 0 0 0 0 0 0 0 0 0 0 0 0 0 0 0 0 0
0 0 2 0 0 0 0 0 0 0 0 0 0 0 0 0 0 0 0 0 0 0 0 0 0 0 0 0 0 0 0 0 0 0 0 0 0 0 0 0 0 0 0 0 0
1 1 0 0 0 0 0 0 0 0 0 0 0 0 0 0 0 0 0 0 0 0 0 0 0 0 0 0 0 0 0 0 0 0 0 0 0 0 0 0 0 0 0 0 0
CIN
-0 -0 -0 -0 -0 -0 -0 -0 -0 -0 -0 -0 -0 -0 -0 -0 -0 -0 -0 -0 -0 -0 -0 -0 -0 -0 -0 -0 -0 -0 -0 -0 -0 -0 -0 -0 -0 -0 -0 -0 -0 -0 -0 -0 -0
-0 -0 -0 -0 -0 -0 -0 -0 -0 -0 -0 -0 -0 -0 -0 -0 -0 -0 -0 -0 -0 -0 -0 -0 -0 -0 -0 -0 -0 -0 -0 -0 -0 -0 -0 -0 -0 -0 -0 -0 -0 -0 -0 -0 -0
-0 -0 -0 -0 -0 -0 -0 -0 -0 -0 -0 -0 -0 -0 -0 -0 -0 -0 -0 -0 -0 -0 -0 -0 -0 -0 -0 -0 -0 -0 -0 -0 -0 -0 -0 -0 -0 -0 -0 -0 -0 -0 -0 -0 -0
-0 -0 -0 -0 -0 -0 -0 -0 -0 -0 -0 -0 -0 -0 -0 -0 -0 -0 -0 -0 -0 -0 -0 -0 -0 -0 -0 -0 -0 -0 -0 -0 -0 -0 -0 -0 -0 -0 -0 -0 -0 -0 -0 -0 -0
-0 -0 -0 -0 -0 -0 -0 -0 -0 -0 -0 -0 -0 -0 -0 -0 -0 -0 -0 -0 -0 -0 -0 -0 -0 -0 -0 -0 -0 -0 -0 -0 -0 -0 -0 -0 -0 -0 -0 -0 -0 -0 -0 -0 -0
-0 -0 -0 -0 -0 -0 -0 -0 -0 -0 -0 -0 -0 -0 -0 -0 -0 -0 -0 -0 -0 -0 -0 -0 -0 -0 -0 -0 -0 -0 -0 -0 -0 -0 -0 -0 -0 -0 -0 -0 -0 -0 -0 -0 -0
-0 -0 -0 -0 -0 -0 -0 -0 -0 -0 -0 -0 -0 -0 -0 -0 -0 -0 -0 -0 -0 -0 -0 -0 -0 -0 -0 -0 -0 -0 -0 -0 -0 -0 -0 -0 -0 -0 -0 -0 -0 -0 -0 -0 -0
-0 -0 -0 -0 -0 -0 -0 -0 -0 -0 -0 -0 -0 -0 -0 -0 -0 -0 -0 -0 -0 -0 -0 -0 -0 -0 -0 -0 -0 -0 -0 -0 -0 -0 -0 -0 -0 -0 -0 -0 -0 -0 -0 -0 -0
-0 -0 -0 -0 -0 -0 -0 -0 -0 -0 -0 -0 -0 -0 -0 -0 -0 -0 -0 -0 -0 -0 -0 -0 -0 -0 -0 -0 -0 -0 -0 -0 -0 -0 -0 -0 -0 -0 -0 -0 -0 -0 -0 -0 -0
-0 -0 -0 -0 -0 -0 -0 -0 -0 -0 -0 -0 -0 -0 -0 -0 -0 -0 -0 -0 -0 -0 -0 -0 -0 -0 -0 -0 -0 -0 -0 -0 -0 -0 -0 -0 -0 -0 -0 -0 -0 -0 -0 -0 -0
-0 -0 -0 -0 -0 -0 -0 -0 -0 -0 -0 -0 -0 -0 -0 -0 -0 -0 -0 -0 -0 -0 -0 -0 -0 -0 -0 -0 -0 -0 -0 -0 -0 -0 -0 -0 -0 -0 -0 -0 -0 -0 -0 -0 -0
-0 -0 -0 -0 -0 -0 -0 -0 -0 -0 -0 -0 -0 -0 -0 -0 -0 -0 -0 -0 -0 -0 -0 -0 -0 -0 -0 -0 -0 -0 -0 -0 -0 -0 -0 -0 -0 -0 -0 -0 -0 -0 -0 -0 -0
-1 -0 -0 -0 -0 -0 -0 -0 -0 -0 -0 -0 -0 -0 -0 -0 -0 -0 -0 -0 -0 -0 -0 -0 -0 -0 -0 -0 -0 -0 -0 -0 -0 -0 -0 -0 -0 -0 -0 -0 -0 -0 -0 -0 -0
-1 -0 -0 -0 -0 -0 -0 -0 -0 -0 -0 -0 -0 -0 -0 -0 -0 -0 -0 -0 -0 -0 -0 -0 -0 -0 -0 -0 -0 -0 -0 -0 -0 -0 -0 -0 -0 -0 -0 -0 -0 -0 -0 -0 -0
-3 -0 -0 -0 -0 -0 -0 -0 -0 -0 -0 -0 -0 -0 -0 -0 -0 -0 -0 -0 -0 -0 -0 -0 -0 -0 -0 -0 -0 -0 -0 -0 -0 -0 -0 -0 -0 -0 -0 -0 -0 -0 -0 -0 -0
-3 -1 -0 -0 -0 -0 -0 -0 -0 -0 -0 -0 -0 -0 -0 -0 -0 -0 -0 -0 -0 -0 -0 -0 -0 -0 -0 -0 -0 -0 -0 -0 -0 -0 -0 -0 -0 -0 -0 -0 -0 -0 -0 -0 -0
-0 -1 -0 -0 -0 -0 -0 -0 -0 -0 -0 -0 -0 -0 -0 -0 -0 -0 -0 -0 -0 -0 -0 -0 -0 -0 -0 -0 -0 -0 -0 -0 -0 -0 -0 -0 -0 -0 -0 -0 -0 -0 -0 -0 -0
-0 -0 -0 -0 -0 -0 -0 -0 -0 -0 -0 -0 -0 -0 -0 -0 -0 -0 -0 -0 -0 -0 -0 -0 -0 -0 -0 -0 -0 -0 -0 -0 -0 -0 -0 -0 -0 -0 -0 -0 -0 -0 -0 -0 -0
-0 -0 -0 -0 -0 -0 -0 -0 -0 -0 -0 -0 -0 -0 -0 -0 -0 -0 -0 -0 -0 -0 -0 -0 -0 -0 -0 -0 -0 -0 -0 -0 -0 -0 -0 -0 -0 -0 -0 -0 -0 -0 -0 -0 -0
-0 -0 -0 -0 -0 -0 -0 -0 -0 -0 -0 -0 -0 -0 -0 -0 -0 -0 -0 -0 -0 -0 -0 -0 -0 -0 -0 -0 -0 -0 -0 -0 -0 -0 -0 -0 -0 -0 -0 -0 -0 -0 -0 -0 -0
-0 -0 -0 -0 -0 -0 -0 -0 -0 -0 -0 -0 -0 -0 -0 -0 -0 -0 -0 -0 -0 -0 -0 -0 -0 -0 -0 -0 -0 -0 -0 -0 -0 -0 -0 -0 -0 -0 -0 -0 -0 -0 -0 -0 -0
-0 -0 -0 -0 -0 -0 -0 -0 -0 -0 -0 -0 -0 -0 -0 -0 -0 -0 -0 -0 -0 -0 -0 -0 -0 -0 -0 -0 -0 -0 -0 -0 -0 -0 -0 -0 -0 -0 -0 -0 -0 -0 -0 -0 -0
-0 -0 -0 -0 -0 -0 -0 -0 -0 -0 -0 -0 -0 -0 -0 -0 -0 -0 -0 -0 -0 -0 -0 -0 -0 -0 -0 -0 -0 -0 -0 -0 -0 -0 -0 -0 -0 -0 -0 -0 -0 -0 -0 -0 -0
-0 -0 -0 -0 -0 -0 -0 -0 -0 -0 -0 -0 -0 -0 -0 -0 -0 -0 -0 -0 -0 -0 -0 -0 -0 -0 -0 -0 -0 -0 -0 -0 -0 -0 -0 -0 -0 -0 -0 -0 -0 -0 -0 -0 -0
-0 -0 -0 -0 -0 -0 -0 -0 -0 -0 -0 -0 -0 -0 -0 -0 -0 -0 -0 -0 -0 -0 -0 -0 -0 -0 -0 -0 -0 -0 -0 -0 -0 -0 -0 -0 -0 -0 -0 -0 -0 -0 -0 -0 -0
-0 -0 -0 -0 -0 -0 -0 -0 -0 -0 -0 -0 -0 -0 -0 -0 -0 -0 -0 -0 -0 -0 -0 -0 -0 -0 -0 -0 -0 -0 -0 -0 -0 -0 -0 -0 -0 -0 -0 -0 -0 -0 -0 -0 -0
-0 -0 -0 -0 -0 -0 -0 -0 -0 -0 -0 -0 -0 -0 -0 -0 -0 -0 -0 -0 -0 -0 -0 -0 -0 -0 -0 -0 -0 -0 -0 -0 -0 -0 -0 -0 -0 -0 -0 -0 -0 -0 -0 -0 -0
Wind_Speed
15 17 17 17 17 17 17 16 16 16 15 15 13 13 13 14 13 14 15 19 20 22 20 18 14 15 16 16 17 15 13 13 13 13 13 14 16 18 19 22 24 22 23 25 28
15 16 16 17 17 17 17 16 16 16 15 13 13 13 14 15 13 15 18 21 21 21 17 16 14 14 15 16 16 15 13 13 14 14 13 14 15 16 17 20 21 23 24 25 27
15 17 18 17 17 17 17 16 16 15 14 14 15 16 17 15 12 16 21 22 22 20 17 16 14 14 15 15 16 16 12 14 15 15 14 15 15 15 16 20 21 22 24 26 28
14 17 18 19 19 18 17 16 16 15 14 14 15 17 16 14 14 18 23 22 21 19 17 15 13 13 14 15 14 13 14 13 13 14 13 14 15 18 18 17 20 21 23 24 27
14 16 18 19 19 19 17 16 16 14 15 15 16 16 15 13 15 21 23 21 18 17 15 14 12 12 13 14 15 13 13 14 14 13 13 14 15 16 18 17 18 20 21 24 26
12 15 16 18 19 19 18 16 15 14 15 15 16 14 14 13 18 22 22 19 18 16 15 14 13 11 13 13 15 11 13 13 14 13 12 13 14 15 17 15 16 18 21 22 25
11 13 16 18 19 19 18 16 14 14 15 15 15 13 15 14 18 20 19 17 17 15 13 13 12 13 11 12 13 12 11 12 14 10 10 12 17 18 17 12 15 17 19 21 23
15 14 15 18 18 19 18 15 14 14 15 15 15 14 16 15 17 18 18 15 15 14 13 13 14 13 12 11 10 10 9 11 13 10 9 11 15 17 13 12 13 15 17 19 22
18 16 16 17 18 18 17 15 13 14 14 14 15 16 16 15 16 17 17 14 14 13 13 13 13 13 9 8 11 9 11 10 11 13 11 7 15 13 11 11 12 14 15 18 21
20 19 18 18 19 19 16 14 13 13 14 14 14 15 15 14 16 17 15 15 13 12 13 14 13 12 9 8 14 10 11 10 10 13 8 9 12 10 9 9 11 13 14 17 20
23 19 19 19 18 18 12 10 11 14 15 16 17 16 14 14 14 16 16 14 12 14 15 14 14 13 8 14 15 13 11 10 11 12 12 10 10 9 8 8 10 11 13 16 19
23 21 18 19 19 17 16 14 15 14 14 16 15 15 13 13 14 15 17 14 13 14 14 14 14 14 13 13 12 10 8 12 13 14 13 11 12 10 7 8 9 10 12 15 19
24 22 18 18 19 18 17 17 15 13 18 18 17 15 14 15 16 16 16 14 13 14 13 14 14 12 12 11 10 13 12 10 14 11 15 13 15 9 8 8 8 9 11 14 18
24 22 18 15 19 18 19 16 13 15 21 19 19 18 15 13 16 15 15 14 15 14 13 16 12 12 10 11 13 12 14 11 11 11 19 12 23 10 7 8 7 7 8 13 17
24 22 19 15 21 19 18 11 12 15 26 16 16 15 13 14 13 14 14 15 14 13 16 16 12 11 10 13 13 14 12 14 15 17 21 17 21 23 7 9 6 6 8 12 15
25 23 20 21 23 22 13 10 13 19 23 15 12 13 12 14 14 13 13 14 12 14 15 17 16 15 14 13 13 7 11 16 18 20 22 18 16 18 12 9 6 5 7 10 14
26 25 23 20 24 15 13 14 20 26 17 18 15 12 12 12 12 11 10 9 11 13 14 14 14 15 9 12 10 13 11 20 22 19 21 18 17 18 11 16 5 5 8 10 14
26 25 27 25 21 15 17 21 30 20 18 14 12 10 14 10 12 10 10 10 11 11 9 10 14 8 9 15 16 10 15 18 23 22 23 19 20 22 17 12 10 6 7 10 13
26 28 30 29 22 20 24 30 31 20 19 15 12 16 16 14 13 10 11 14 9 6 12 9 13 12 12 13 14 15 18 19 23 25 26 21 22 20 14 11 9 8 8 10 13
31 31 34 25 23 24 33 35 28 22 17 18 19 15 15 14 13 12 11 12 14 9 14 11 15 13 15 14 15 17 15 21 20 25 27 22 24 21 15 10 9 8 9 9 12
32 38 31 25 25 34 46 39 30 25 22 21 23 20 20 17 15 16 15 15 10 8 12 11 16 16 14 15 15 16 20 19 21 21 26 30 26 19 15 10 9 8 8 8 10
37 46 30 28 39 41 47 36 30 28 27 26 24 22 20 16 17 17 16 17 7 6 12 13 16 19 19 20 20 19 20 17 22 24 23 27 30 20 18 14 9 9 8 8 10
43 40 31 35 51 49 43 42 36 30 29 27 26 25 20 18 22 20 16 15 10 8 10 10 17 23 25 23 20 20 18 20 23 24 24 28 28 20 17 15 11 9 8 8 9
40 44 39 45 50 49 47 46 44 35 33 29 28 24 22 23 21 19 18 17 15 13 16 13 18 23 27 27 19 21 18 17 19 22 27 24 28 24 19 17 12 10 8 8 8
43 46 44 58 60 52 47 46 45 43 36 31 31 31 26 26 24 23 19 18 18 17 18 17 26 25 28 27 26 26 24 20 23 23 27 29 27 24 22 17 13 11 8 8 9
51 47 44 52 52 55 50 55 48 44 37 39 38 30 28 29 26 25 21 22 22 19 19 20 27 27 33 30 30 31 24 24 24 26 28 30 31 25 21 15 13 11 9 9 9
45 44 45 52 52 56 62 58 53 43 45 40 38 33 33 30 23 21 23 20 19 22 20 21 24 27 34 32 36 35 25 26 27 26 25 29 27 23 20 16 14 11 9 9 8
Wind_Direction
316 307 306 308 306 308 310 311 309 304 306 310 323 322 325 315 321 325 333 303 294 280 277 282 18 23 20 22 25 43 42 42 47 52 47 57 43 34 37 26 19 24 16 11 6
313 307 311 304 303 305 306 306 304 305 303 313 317 312 307 308 332 344 316 302 298 293 313 328 3 21 7 6 13 20 44 33 39 44 51 47 46 48 40 34 27 21 17 14 11
309 298 296 297 298 298 298 303 301 306 308 307 305 299 299 311 340 323 307 302 302 301 312 318 346 4 10 6 2 8 28 60 46 47 48 46 43 43 45 23 20 19 11 11 11
308 294 292 287 285 289 296 300 299 303 306 307 303 300 305 320 327 317 302 301 308 313 315 323 343 1 6 359 10 35 39 39 46 41 51 41 38 24 22 27 28 23 20 16 14
301 298 290 286 285 285 294 299 301 308 306 308 305 305 316 335 329 307 302 309 324 327 329 332 351 7 7 23 29 39 42 37 41 40 39 45 29 28 27 29 31 28 24 21 18
298 294 292 287 284 286 292 297 305 311 310 308 311 318 322 326 314 308 309 324 331 336 333 333 344 14 12 2 352 42 54 47 34 36 53 37 33 16 18 27 28 25 23 22 19
289 290 290 287 284 285 292 299 307 311 312 314 317 324 321 325 319 314 324 331 333 339 346 344 345 345 11 15 40 56 39 36 17 37 32 46 6 1 13 38 31 25 26 24 20
276 284 285 285 286 287 290 303 307 311 313 317 317 325 319 325 322 323 323 338 342 346 0 353 360 3 356 46 15 10 25 2 2 17 13 7 357 3 27 38 31 26 30 26 22
268 273 279 281 282 286 289 299 310 314 317 319 316 315 314 326 323 322 327 330 333 346 352 355 355 353 11 9 349 343 342 344 355 347 2 3 355 10 31 33 27 26 27 25 20
265 267 272 275 277 280 288 296 308 318 320 326 324 319 315 319 318 321 328 327 331 334 337 335 340 337 341 335 324 327 334 340 344 350 359 357 357 16 30 30 22 19 21 21 17
260 263 268 271 274 277 288 305 311 312 316 312 316 316 321 320 324 318 320 323 325 323 315 323 320 318 321 319 324 332 332 339 346 349 355 351 358 7 19 17 12 13 15 15 12
256 259 264 269 271 273 275 289 299 316 312 316 318 324 327 325 317 314 315 317 313 308 314 315 313 319 323 324 326 330 332 334 340 341 342 347 344 353 359 357 0 7 10 10 9
252 256 259 265 271 271 269 282 302 307 306 306 309 313 318 320 309 305 309 314 311 306 307 307 318 321 321 323 325 323 322 327 330 341 340 340 330 329 338 347 351 358 4 6 6
246 250 253 259 268 269 270 278 293 307 300 299 297 305 313 318 309 311 310 309 306 304 311 311 315 314 314 314 316 316 325 331 333 332 326 335 331 335 327 328 335 349 358 1 4
240 242 246 237 271 261 278 274 288 300 292 305 299 314 316 306 317 312 310 306 301 304 304 306 309 307 308 311 314 317 329 327 327 323 324 324 326 336 337 319 312 334 351 358 2
235 236 241 250 264 269 269 265 282 282 281 300 313 306 305 309 312 312 307 314 313 308 312 306 307 307 309 315 314 343 331 328 325 323 318 318 320 332 334 305 314 334 349 357 360
233 234 234 249 255 257 251 255 265 266 287 286 294 297 297 305 311 313 304 298 299 298 295 304 300 305 309 310 317 312 317 317 319 320 320 330 325 320 327 343 319 331 346 356 359
228 232 239 251 256 243 243 250 259 265 262 293 300 290 291 302 305 305 311 301 291 302 306 292 298 281 294 300 304 294 307 312 317 319 324 329 323 333 343 342 350 350 352 356 357
222 236 245 245 246 235 239 238 255 264 259 260 281 283 283 288 304 303 294 299 290 257 305 302 307 306 305 304 308 304 298 312 313 317 317 317 323 328 335 332 335 339 343 346 353
226 236 243 236 235 233 243 242 256 261 261 258 262 273 267 273 284 284 288 305 295 270 302 308 308 308 301 304 305 303 314 309 310 315 316 321 320 321 330 310 313 317 323 340 350
228 238 242 228 230 239 241 248 250 258 258 254 260 265 272 274 272 281 295 303 290 284 288 298 302 305 304 288 287 295 297 302 310 309 313 317 322 338 323 311 307 311 322 335 344
229 238 236 219 230 241 242 250 252 249 255 261 262 267 262 261 268 273 277 298 293 284 282 293 306 298 296 305 300 294 295 290 298 308 307 311 310 330 330 325 314 318 322 336 344
232 238 238 230 234 238 246 241 250 246 245 251 254 262 268 258 272 271 276 292 291 280 287 277 296 297 303 304 300 293 284 293 298 305 298 305 316 336 332 327 320 319 324 332 342
230 235 237 235 240 237 239 244 243 249 249 250 254 258 257 263 270 271 272 285 284 283 293 287 292 291 291 303 308 298 285 276 282 292 299 281 300 317 317 313 311 311 314 323 333
232 237 235 233 234 237 236 242 238 244 248 243 251 250 245 259 261 268 273 280 283 282 284 284 287 290 293 297 298 297 294 275 271 268 286 294 291 293 296 295 292 301 304 315 324
234 235 236 244 233 232 236 239 235 238 240 244 250 243 246 253 256 259 263 269 277 273 276 284 288 293 293 295 295 293 288 283 271 280 275 282 290 305 311 301 296 287 287 296 313
240 236 237 239 233 231 232 236 236 235 246 246 245 247 248 255 264 271 273 267 277 275 266 276 282 292 294 298 297 292 276 268 277 283 278 281 277 304 298 288 284 274 265 278 299